Back to catalog

NOAA 16 DEB

AliveSSO
NORAD 42406·DEBRIS·🇺🇸 United States

Launched Sep 21, 2000 from Vandenberg Space Force Base

Loading…

Next Passes (next 24 hours)

TLE

FreshSource: Space-Track

Epoch: Sep 13, 2026, 20:50 UTC

1 42406U 00055TA  26256.86847597  .00000640  00000-0  31832-3 0  9991
2 42406  98.5635 310.1049 0017402  62.6266 297.6679 14.20359686541600

Track NOAA 16 DEB in real time with AllMySat

Download on the App Store